Location: Alta
(39.2070°N, 120.8111°W)
Time: 08:11:48
(UTC+00:00)

ITAMSAT 1 - Pass Details

Date: 01 June 2024
Orbit: 781 x 796 km, 98.8° (Epoch: 20 June)

Event Time Altitude Azimuth Distance (km) Brightness Sun altitude
Exits shadow 05:27:21 - 205° (SSW) 2,476 10.0 -18.9°
Reaches altitude 10° 05:27:45 10° 207° (SSW) 2,344 9.9 -19.0°
Maximum altitude 05:32:04 27° 264° (W) 1,490 9.4 -19.5°
Drops below altitude 10° 05:36:25 10° 321° (NW) 2,350 11.3 -20.0°
Sets 05:39:06 0° 334° (NNW) 3,281 12.4 -20.3°
